Regional Weather Roundup
Issued by NWS

Home | Current Version | Previous Version | Graphics & Text | Print | Product List | Glossary On
Versions: 1 2 3 4 5 6 7 8 9 10 11 12 13 14 15 16 17 18 19 20 21 22 23 24 25 26 27 28 29 30 31 32 33 34 35 36 37 38 39 40 41 42 43 44 45 46 47 48 49 50
000
ASUS43 KBIS 220702
RWRND

NORTH DAKOTA REGIONAL WEATHER ROUNDUP
NATIONAL WEATHER SERVICE BISMARCK ND
100 AM CST SUN JAN 22 2017

NOTE: "FAIR" INDICATES FEW OR NO CLOUDS BELOW 12,000 FEET WITH NO
SIGNIFICANT WEATHER AND/OR OBSTRUCTIONS TO VISIBILITY.


NDZ001>003-009>011-017-220800-
NORTHWEST NORTH DAKOTA

CITY           SKY/WX    TMP DP  RH WIND       PRES   REMARKS
WILLISTON      CLOUDY    30  28  92 W9        29.63R
MINOT          CLOUDY    31  29  92 W9        29.58R FOG
MINOT AFB      CLOUDY    30  29  95 W12       29.57R FOG
$$

NDZ018>021-031>035-040>046-220800-
SOUTHWEST NORTH DAKOTA

CITY           SKY/WX    TMP DP  RH WIND       PRES   REMARKS
BISMARCK       MOCLDY    16  14  92 W5        29.64R FOG     WCI   9
DICKINSON      FAIR      17  14  88 W12       29.60R WCI   4
GARRISON         N/A     28  26  92 W9        29.60R WCI  19
HETTINGER ARPT CLEAR     20  16  84 NW10      29.63R WCI   9
$$

NDZ004>008-012>016-024-026-027-054-220800-
NORTHEAST NORTH DAKOTA

CITY           SKY/WX    TMP DP  RH WIND       PRES   REMARKS
GRAND FORKS    FOG       34  32  92 SW3       29.60R VSB 1/2
GRND FRKS AFB  CLOUDY    33  33  99 CALM      29.60S FOG
DEVILS LAKE    CLOUDY    31  30  96 W10       29.59R FOG
$$

NDZ022-023-025-028>030-036>039-047>053-220800-
SOUTHEAST NORTH DAKOTA

CITY           SKY/WX    TMP DP  RH WIND       PRES   REMARKS
FARGO          FOG       36  34  92 CALM      29.59R VSB 1/4
JAMESTOWN      CLOUDY    31  30  96 W7        29.59R
$$





USA.gov is the U.S. government's official web portal to all federal, state and local government web resources and services.